Theta_e
330 326 325 326 323 322 320 320 326 323 324 325 325 325 325 323 322 326 322 324 326 323
329 328 326 327 327 323 326 320 322 323 324 324 324 324 324 320 322 323 324 324 325 323
328 328 327 326 325 324 324 322 322 323 324 324 323 323 322 319 320 322 320 320 324 324
326 326 326 325 324 323 323 322 321 322 322 322 321 321 321 319 317 315 317 318 318 319
326 326 325 324 323 323 321 321 322 322 321 320 320 320 318 316 314 314 314 313 314 315
324 324 324 324 323 321 320 320 320 320 320 319 318 316 317 316 315 315 315 313 314 313
324 323 322 321 320 319 319 319 319 319 319 319 317 315 317 316 316 315 315 316 315 315
323 322 320 318 317 317 317 317 318 318 317 316 315 314 317 316 314 313 314 315 315 316
320 318 317 316 316 315 315 315 315 314 312 313 314 308 307 311 312 314 313 311 313 314
317 315 314 314 314 313 314 313 310 310 310 310 312 305 303 305 311 311 311 310 310 310
314 313 313 313 313 313 311 309 308 308 310 310 311 304 301 302 308 309 308 310 309 309
312 311 311 311 311 310 307 308 308 308 307 308 309 303 301 302 307 307 309 309 309 310
311 311 309 308 308 307 305 306 306 306 308 306 307 304 299 301 306 305 308 310 308 305
311 310 307 306 305 305 305 305 305 304 306 308 309 310 300 299 305 304 303 302 301 303
Wind_Speed
10 7 8 7 7 7 8 9 8 9 10 11 11 11 11 10 10 11 11 14 12 12
10 9 8 7 7 8 8 9 10 11 12 12 12 12 12 10 12 12 11 12 13 12
10 10 9 8 10 11 11 12 12 13 12 13 13 12 11 10 13 13 11 12 14 12
10 10 9 9 10 11 11 12 13 13 14 14 14 13 11 11 12 15 14 13 14 17
10 10 10 10 11 12 13 13 13 14 14 15 15 14 14 15 14 15 15 14 16 18
11 11 11 11 11 12 13 14 14 14 15 15 13 14 16 15 15 15 16 17 15 15
10 10 11 11 12 13 14 14 15 15 16 12 13 16 17 16 15 16 16 18 18 19
9 10 11 12 13 13 13 14 16 16 13 13 14 14 17 17 16 17 17 16 18 18
11 11 12 12 13 13 14 14 15 16 16 16 14 17 17 19 16 18 16 15 16 18
11 12 12 12 13 14 14 13 14 14 16 19 18 19 18 18 16 17 17 17 18 16
11 11 11 12 13 13 12 13 14 17 18 18 15 20 18 20 19 18 20 20 19 20
9 11 12 13 13 13 13 15 16 16 17 18 18 20 19 18 15 17 18 21 20 20
9 10 12 12 14 13 14 15 16 18 18 20 21 22 17 16 14 18 16 18 18 24
9 8 10 12 12 12 14 16 17 17 18 19 19 19 19 19 14 13 13 14 15 16
Wind_Direction
210 225 234 239 277 292 300 299 305 293 280 276 276 276 276 273 270 270 265 265 265 275
210 227 264 282 276 273 284 287 285 294 289 282 278 275 280 278 271 268 270 271 268 265
215 226 238 254 264 276 280 279 280 279 276 274 274 274 273 272 271 269 264 268 271 270
225 231 241 255 266 273 277 276 274 274 274 274 274 272 267 259 260 273 280 280 272 269
225 236 249 259 268 276 277 278 275 274 274 274 275 276 268 266 264 268 266 261 258 266
233 242 252 263 270 274 277 277 276 275 274 277 277 269 264 262 260 254 257 262 260 259
246 255 266 276 278 278 277 278 277 275 276 276 269 263 262 263 260 255 252 255 257 258
255 261 268 276 281 283 282 281 279 279 280 279 267 261 262 260 257 256 255 250 251 252
255 265 271 275 278 280 283 287 289 288 280 271 269 267 248 251 261 263 259 258 254 251
260 270 276 279 285 285 287 296 285 275 273 272 274 270 263 259 265 263 256 258 255 251
270 279 286 285 285 289 289 282 278 276 276 277 274 267 261 264 268 264 264 256 254 250
287 291 290 292 295 297 291 284 281 279 282 278 275 271 262 262 269 265 264 261 254 247
289 294 299 302 291 296 288 283 284 286 284 281 278 272 265 264 270 268 263 263 264 261
290 313 294 291 292 288 286 288 290 286 284 281 276 278 264 254 266 272 274 269 267 260